Arimo, ID

6:58 PM MDT on August 25, 2019 (GMT -0600)
Dempsey Creek | | Change Station
Active Advisory: Fire Weather Warning

Elev 5249 ft 42.59 °N, 112.03 °W | Updated 14 seconds ago

Clear
Clear
78.1 °F
Feels Like 77 °F
N
7.83
Wind Variable Wind from NNW
Gusts 10.1 mph

Today
High -- | Low -- °F
--% Chance of Precip.
Yesterday
High -- | Low -- °F
Precip. -- in
Pressure 29.83 in
Visibility 10.0 miles
Clouds Clear
Heat Index 77 °F
Dew Point 34 °F
Humidity 20%
Rainfall 0.00 in
Snow Depth Not available.
6:46 AM 8:14 PM
Waning Crescent, 25% visible
METAR KPIH 260053Z 25026G33KT 10SM CLR 27/M01 A2997 RMK AO2 PK WND 24039/0027 SLP099 T02671011
Pressure 29.83 in
Visibility 10.0 miles
Clouds Clear
Heat Index 77 °F
Dew Point 34 °F
Humidity 20%
Rainfall 0.00 in
Snow Depth Not available.
6:46 AM 8:14 PM
Waning Crescent, 25% visible
METAR KPIH 260053Z 25026G33KT 10SM CLR 27/M01 A2997 RMK AO2 PK WND 24039/0027 SLP099 T02671011

Get Your Daily Forecast Email!

Thanks for signing up!

Be on the lookout for a verification email in your inbox.

You'll start receiving severe weather alerts in your inbox..

×

10-Day Weather Forecast

Almanac

Astronomy

Aug. 25, 2019 Rise Set
Actual Time
Civil Twilight
Nautical Twilight
Astronomical Twilight
Moon
Length of Visible Light
Length of Day
Tomorrow will be .
, % of the Moon is Illuminated

Today's Extremes

State Highs State Lows

Community

WunderPhotos

Category 6

Welcome to Category 6. This is the collective home for Weather Underground's featured writeups by Dr. Jeff Masters (right), Bob Henson (left), Chris Burt, and other regular contributors.

Nearby

Air Quality

  Air Quality AQ Index Pollutant
Not available.

Snow Depth

Station Depth Elevation

Earthquake Activity

City Distance Mag. Time & Date
Minimum magnitude displayed is 2.5.

Coastal Water Temperatures

Place Temperature

Stations

Nearby Weather Stations

Station Location Temp. Windchill Dew Point Humidity Wind Precip. Elev Updated Type
                   

Watches & Warnings

Fire Weather Warning
Issued: 12:58 PM MDT Aug. 25, 2019 – National Weather Service

... Red flag warning remains in effect until 9 PM MDT this evening
for gusty winds and low humidity for fire weather zone 413 below
5800 feet elevation...

* affected area... fire weather zone 413 Caribou Range/Caribou nf.

* Winds... west 15 to 25 mph with gusts up to 40 mph.

* Relative humidity... 13 to 15 percent.

* Impacts... once a fire starts, fast fire spread rates and high
intensity fires are likely to result.

* Relative humidity at or below 15 percent and wind gusts of at
least 25 mph in the mountains, and/or 30 mph in the snake
plain.

Precautionary/preparedness actions...

A red flag warning means that critical fire weather conditions
are expected for southeastern Idaho based on the following
conditions:

* relative humidity at or below 15 percent and wind gusts of at
least 25 mph in the mountains, and/or 30 mph in the snake
plain.